Weather observations for the past three days for
Kodiak, Kodiak Airport
Metric (Imperial)
Date Time (akdt) Wind (kph) Vis. (km) Weather Sky Cond. Temperature (ºC) Relative Humidity Wind Chill (°C) Heat Index (°C) Pressure Precipitation (cm)
Air Dwpt 6 hour altimeter (cm) sea level (mb) 1 hr 3 hr 6 hr
Max. Min.
21 08:53 N 13 4.02 Light Rain Fog/Mist SCT012 OVC017 10 8.9 93% 8 75.77 1010.1 0.2
21 07:53 N 13 4.02 Light Rain Fog/Mist BKN015 OVC020 10 8.9 93% 8 75.74 1009.9 0.15
21 06:53 N 15 G 35 4.02 Light Rain Fog/Mist FEW017 BKN025 OVC031 9.4 8.3 93% 7 75.74 1009.8 0.13 0.18
21 05:53 N 13 8.05 Light Rain Fog/Mist BKN011 OVC016 9.4 8.3 93% 8 75.77 1010.1 0.05
21 04:53 N 17 4.02 Light Rain Fog/Mist OVC007 9.4 8.3 93% 7 75.77 1010.0
21 03:53 N 22 G 39 16.09 Overcast FEW010 BKN019 OVC023 9.4 8.3 9.4 8.9 93% 7 75.79 1010.3 0.08 0.36
21 02:53 N 15 4.83 Light Rain Fog/Mist SCT010 OVC021 8.9 8.3 96% 7 75.82 1010.7 0.05
21 01:53 N 19 6.44 Light Rain Fog/Mist SCT012 OVC020 8.9 8.3 96% 6 75.82 1010.8 0.08
21 00:53 N 13 G 28 4.02 Light Rain Fog/Mist FEW010 OVC018 8.9 8.3 96% 7 75.82 1011.0 0.13 0.15
20 22:53 NE 20 G 39 12.87 Overcast OVC009 8.9 7.8 93% 6 75.84 1011.0
20 21:53 N 20 9.66 Fog/Mist BKN010 OVC018 8.9 7.8 9.4 8.9 93% 6 75.84 1011.1 0.13
20 20:53 NE 24 4.02 Light Rain Fog/Mist BKN007 OVC014 8.9 8.3 96% 6 75.87 1011.5 0.05
20 19:53 NE 28 6.44 Light Rain Fog/Mist OVC007 8.9 8.3 96% 6 75.87 1011.5
20 18:53 NE 19 6.44 Fog/Mist BKN008 OVC013 9.4 8.9 97% 7 75.92 1012.0 0.03 0.08
20 17:53 NE 20 6.44 Fog/Mist BKN005 OVC017 9.4 8.9 97% 7 75.95 1012.5 0.03
20 16:53 NE 22 4.83 Fog/Mist OVC006 9.4 8.9 97% 7 75.97 1012.8 0.03
20 15:53 NE 19 4.83 Light Rain Fog/Mist SCT006 OVC016 9.4 8.9 10 8.3 97% 7 76 1013.3 0.03 0.05
20 14:53 NE 24 4.02 Fog/Mist BKN010 OVC014 8.9 7.8 93% 6 76.02 1013.6
20 13:53 NE 24 6.44 Fog/Mist FEW008 OVC013 8.9 7.8 93% 6 76.02 1013.6
20 12:53 NE 19 16.09 Overcast FEW010 OVC028 9.4 7.8 90% 7 76.05 1013.9 0.03
20 11:53 NE 17 16.09 Overcast BKN010 BKN015 OVC035 8.9 7.8 93% 7 76.07 1014.2
20 10:53 NE 17 16.09 Overcast FEW007 BKN014 OVC021 8.9 7.8 93% 7 76.1 1014.4 0.03
20 09:53 NE 15 12.87 Overcast FEW008 BKN014 OVC021 8.3 7.2 8.9 7.8 93% 6 76.1 1014.6 0.03
20 08:53 NE 15 16.09 Overcast SCT013 OVC021 8.3 7.2 93% 6 76.12 1014.7
20 07:53 NE 9 16.09 Overcast SCT008 OVC019 8.3 7.2 93% 7 76.15 1015.2
20 06:53 NE 9 16.09 Overcast FEW008 OVC015 8.3 6.7 90% 7 76.15 1015.2 0.03
20 05:53 Vrbl 6 16.09 Overcast FEW005 SCT010 OVC015 7.8 7.2 96% 76.17 1015.4
20 04:53 Calm 16.09 Overcast BKN006 OVC013 7.8 7.2 96% 76.2 1015.9 0.03
20 03:53 NE 7 16.09 Overcast FEW007 BKN011 OVC027 7.8 6.7 8.3 7.8 93% 7 76.23 1016.1
20 02:53 Calm 16.09 Overcast SCT010 BKN014 OVC019 7.8 6.7 93% 76.23 1016.3
20 01:53 NE 9 16.09 Overcast BKN008 OVC023 7.8 6.7 93% 6 76.25 1016.6
20 00:53 E 9 8.05 Fog/Mist SCT008 OVC014 7.8 6.7 93% 6 76.28 1016.9
19 23:53 NE 7 16.09 Overcast FEW008 BKN013 OVC080 7.8 6.7 93% 7 76.3 1017.1
19 22:53 NE 7 16.09 Overcast OVC014 8.3 6.7 90% 7 76.3 1017.2
19 21:53 E 11 16.09 Overcast BKN012 OVC027 8.3 6.7 9.4 7.8 90% 7 76.3 1017.2 0.03 0.03
19 20:53 E 11 8.05 Fog/Mist BKN021 OVC029 8.3 6.1 86% 7 76.33 1017.4
19 19:53 E 11 16.09 Overcast FEW007 BKN019 OVC100 8.3 6.7 90% 7 76.3 1017.4
19 18:53 E 9 16.09 Light Rain BKN014 BKN018 OVC060 8.3 7.2 93% 7 76.33 1017.5
19 17:53 E 11 16.09 Light Rain SCT009 BKN017 OVC070 8.9 7.2 89% 7 76.35 1017.9
19 16:53 E 11 16.09 Light Rain SCT010 BKN055 OVC070 8.9 6.7 86% 7 76.35 1017.9
19 15:53 E 15 16.09 Overcast FEW016 OVC027 9.4 7.2 9.4 7.8 86% 7 76.35 1017.9 0.03
19 14:53 E 13 16.09 Overcast SCT006 OVC021 9.4 7.8 90% 8 76.35 1018.0
19 13:53 E 15 16.09 Overcast SCT006 OVC021 8.9 7.2 89% 7 76.35 1017.9
19 12:53 E 15 16.09 Overcast SCT007 OVC011 8.9 8.3 96% 7 76.35 1017.8 0.03
19 11:53 E 19 16.09 Overcast SCT004 BKN013 OVC031 8.9 8.3 96% 6 76.35 1018.0
19 10:53 E 9 6.44 Fog/Mist BKN006 BKN012 OVC022 8.3 7.8 97% 7 76.35 1017.9 0.03
19 09:53 E 15 4.83 Fog/Mist SCT007 OVC013 8.3 7.8 8.3 7.8 97% 6 76.33 1017.7 0.1
19 08:53 SE 11 4.83 Fog/Mist BKN004 OVC010 7.8 7.2 96% 6 76.33 1017.4 0.05
19 07:53 SE 9 4.02 Fog/Mist BKN004 BKN008 OVC013 7.8 7.2 96% 6 76.3 1017.4 0.03
19 06:53 E 7 16.09 Overcast SCT008 SCT013 OVC021 8.3 7.2 93% 7 76.3 1017.3 0.03
19 05:53 SE 9 14.48 Overcast OVC010 7.8 7.2 96% 6 76.3 1017.3
19 04:53 Calm 16.09 Overcast FEW005 BKN014 OVC110 7.8 7.2 96% 76.3 1017.3 0.03
19 03:53 E 7 16.09 Overcast BKN017 OVC023 7.8 7.2 8.3 7.8 96% 7 76.33 1017.6
19 02:53 E 11 16.09 Light Rain BKN006 OVC015 7.8 7.2 96% 6 76.35 1017.9
19 01:53 E 15 16.09 Overcast FEW007 BKN023 OVC029 7.8 6.7 93% 6 76.38 1018.1
19 00:53 E 15 16.09 Overcast BKN017 OVC027 7.8 6.7 93% 6 76.38 1018.2
18 23:53 E 13 16.09 Overcast SCT008 BKN018 OVC030 7.8 6.7 93% 6 76.35 1018.1
18 22:53 SE 15 16.09 Overcast OVC024 7.8 6.7 93% 6 76.38 1018.2
18 21:53 E 19 16.09 Overcast BKN022 OVC028 7.8 6.7 9.4 7.8 93% 5 76.38 1018.1
18 20:53 E 24 16.09 Overcast OVC022 8.3 6.7 90% 5 76.35 1017.9
18 19:53 E 19 16.09 Overcast OVC023 8.9 6.7 86% 6 76.38 1018.2
18 18:53 E 19 16.09 Mostly Cloudy BKN027 9.4 6.7 83% 7 76.38 1018.2
18 17:53 E 20 16.09 Overcast OVC021 8.9 6.7 86% 6 76.4 1018.7
18 16:53 E 17 16.09 Overcast OVC019 8.9 7.2 89% 7 76.43 1018.8
18 15:53 E 13 16.09 Overcast FEW013 OVC019 9.4 7.8 9.4 8.9 90% 8 76.4 1018.8 0.13
18 14:53 SE 13 16.09 Overcast BKN019 OVC024 8.9 7.2 89% 7 76.4 1018.5
18 13:53 E 15 14.48 Light Rain OVC019 8.9 7.8 93% 7 76.4 1018.4 0.08
18 12:53 E 17 16.09 Light Rain OVC019 8.9 7.2 89% 7 76.38 1018.1 0.05 0.05
18 11:53 SE 15 16.09 Light Rain BKN021 OVC026 9.4 6.7 83% 7 76.35 1017.8
18 10:53 SE 20 16.09 Overcast SCT027 OVC080 9.4 6.1 80% 7 76.33 1017.6
18 09:53 SE 13 16.09 Overcast OVC017 8.9 6.1 9.4 8.3 83% 7 76.33 1017.6
Date Time (akdt) Wind (kph) Vis. (km) Weather Sky Cond. Air Dwpt Max. Min. Relative Humidity Wind Chill (°C) Heat Index (°C) altimeter (cm) sea level (mb) 1 hr 3 hr 6 hr
6 hour
Temperature (ºC) Pressure Precipitation (cm)